• In Belarus
  • List of Countries
  • For 7 days
  • Water Temperature
  • Satellite Maps
  • Weather Map
  • Weather Widgets
  • user-avatar
    Login

    Hourly Weather Solden

    Today, 16 August, Wednesday

    Time Temperature Precipitation Wind Pressure Humidity
    00:00 +8°C° 0 mm 1 mps 587 mmHg 84%
    01:00 +8°C° 0 mm 1 mps 587 mmHg 84%
    02:00 +8°C° 0 mm 1 mps 587 mmHg 84%
    03:00 +7°C° 0 mm 1 mps 587 mmHg 85%
    04:00 +7°C° 0 mm 1 mps 587 mmHg 85%
    05:00 +8°C° 0.2 mm 1 mps 587 mmHg 84%
    06:00 +9°C° 0.2 mm 1 mps 588 mmHg 82%
    07:00 +9°C° 0 mm 2 mps 589 mmHg 80%
    08:00 +12°C° 0.3 mm 1 mps 590 mmHg 73%
    09:00 +14°C° 0.3 mm 1 mps 590 mmHg 67%
    10:00 +15°C° 0.3 mm 1 mps 591 mmHg 60%
    11:00 +16°C° 0.5 mm 1 mps 591 mmHg 57%
    12:00 +18°C° 0.5 mm 1 mps 591 mmHg 54%
    13:00 +19°C° 0.5 mm 1 mps 592 mmHg 51%
    14:00 +19°C° 0.9 mm 1 mps 591 mmHg 53%
    15:00 +18°C° 0.9 mm 1 mps 591 mmHg 55%
    16:00 +18°C° 0.9 mm 1 mps 591 mmHg 58%
    17:00 +15°C° 0.7 mm 1 mps 590 mmHg 65%
    18:00 +13°C° 0.7 mm 1 mps 589 mmHg 72%
    19:00 +12°C° 0.7 mm 1 mps 588 mmHg 78%
    20:00 +11°C° 0.5 mm 1 mps 588 mmHg 81%
    21:00 +10°C° 0.5 mm 1 mps 588 mmHg 83%
    22:00 +9°C° 0.5 mm 1 mps 588 mmHg 85%
    23:00 +9°C° 0.1 mm 1 mps 588 mmHg 86%

    Tomorrow, 17 August, Thursday

    Time Temperature Precipitation Wind Pressure Humidity
    00:00 +8°C° 0.1 mm 1 mps 587 mmHg 86%
    01:00 +8°C° 0.1 mm 1 mps 587 mmHg 86%
    02:00 +8°C° 0 mm 1 mps 587 mmHg 86%
    03:00 +7°C° 0 mm 1 mps 587 mmHg 87%
    04:00 +7°C° 0 mm 1 mps 586 mmHg 87%
    05:00 +8°C° 0 mm 1 mps 587 mmHg 84%
    06:00 +9°C° 0 mm 1 mps 588 mmHg 80%
    07:00 +10°C° 0 mm 0 mps 588 mmHg 77%
    08:00 +13°C° 0 mm 1 mps 589 mmHg 68%
    09:00 +15°C° 0 mm 1 mps 590 mmHg 60%
    10:00 +18°C° 0 mm 1 mps 591 mmHg 51%
    11:00 +19°C° 0.1 mm 1 mps 591 mmHg 50%
    12:00 +19°C° 0.1 mm 1 mps 591 mmHg 49%
    13:00 +20°C° 0.1 mm 1 mps 591 mmHg 48%
    14:00 +19°C° 0.3 mm 1 mps 591 mmHg 51%
    15:00 +19°C° 0.3 mm 1 mps 591 mmHg 54%
    16:00 +19°C° 0.3 mm 1 mps 590 mmHg 57%
    17:00 +16°C° 0.1 mm 1 mps 590 mmHg 65%
    18:00 +14°C° 0.1 mm 1 mps 589 mmHg 72%
    19:00 +13°C° 0.1 mm 1 mps 588 mmHg 80%
    20:00 +12°C° 0 mm 1 mps 588 mmHg 83%
    21:00 +11°C° 0 mm 1 mps 588 mmHg 86%
    22:00 +10°C° 0 mm 1 mps 587 mmHg 89%
    23:00 +9°C° 0 mm 1 mps 587 mmHg 90%

    Day after tomorrow, 18 August, Friday

    Time Temperature Precipitation Wind Pressure Humidity
    00:00 +9°C° 0 mm 1 mps 587 mmHg 90%
    01:00 +9°C° 0 mm 1 mps 587 mmHg 91%
    02:00 +9°C° 0 mm 1 mps 587 mmHg 91%
    03:00 +8°C° 0 mm 1 mps 587 mmHg 92%
    04:00 +8°C° 0 mm 1 mps 586 mmHg 92%
    05:00 +9°C° 0 mm 1 mps 587 mmHg 89%
    06:00 +11°C° 0 mm 1 mps 587 mmHg 86%
    07:00 +12°C° 0 mm 1 mps 588 mmHg 83%
    08:00 +14°C° 0 mm 1 mps 589 mmHg 75%
    09:00 +16°C° 0 mm 1 mps 589 mmHg 66%
    10:00 +18°C° 0 mm 2 mps 590 mmHg 58%
    11:00 +18°C° 0.1 mm 2 mps 590 mmHg 56%
    12:00 +19°C° 0.1 mm 2 mps 590 mmHg 55%
    13:00 +19°C° 0.1 mm 2 mps 590 mmHg 53%
    14:00 +19°C° 0.2 mm 2 mps 590 mmHg 56%
    15:00 +18°C° 0.2 mm 2 mps 589 mmHg 58%
    16:00 +18°C° 0.2 mm 2 mps 589 mmHg 61%
    17:00 +16°C° 0.3 mm 2 mps 588 mmHg 68%
    18:00 +15°C° 0.3 mm 2 mps 587 mmHg 76%
    19:00 +13°C° 0.3 mm 1 mps 586 mmHg 83%
    20:00 +12°C° 0.2 mm 1 mps 586 mmHg 86%
    21:00 +11°C° 0.2 mm 1 mps 586 mmHg 89%
    22:00 +9°C° 0.2 mm 2 mps 586 mmHg 92%
    23:00 +10°C° 0.3 mm 1 mps 586 mmHg 92%

    19 August, Saturday

    Time Temperature Precipitation Wind Pressure Humidity
    00:00 +10°C° 0.3 mm 1 mps 586 mmHg 93%
    01:00 +10°C° 0.3 mm 1 mps 586 mmHg 93%
    02:00 +9°C° 2.9 mm 1 mps 585 mmHg 94%
    03:00 +8°C° 2.9 mm 2 mps 585 mmHg 94%
    04:00 +7°C° 2.9 mm 2 mps 585 mmHg 94%
    05:00 +7°C° 3.9 mm 2 mps 585 mmHg 94%
    06:00 +6°C° 3.9 mm 2 mps 585 mmHg 94%
    07:00 +6°C° 3.9 mm 2 mps 585 mmHg 93%
    08:00 +7°C° 0.6 mm 2 mps 585 mmHg 88%
    09:00 +7°C° 0.6 mm 2 mps 585 mmHg 83%
    10:00 +8°C° 0.6 mm 2 mps 586 mmHg 78%
    11:00 +10°C° 0.2 mm 2 mps 586 mmHg 71%
    12:00 +12°C° 0.2 mm 2 mps 587 mmHg 65%
    13:00 +13°C° 0.2 mm 2 mps 588 mmHg 58%
    14:00 +13°C° 1.2 mm 2 mps 587 mmHg 61%
    15:00 +12°C° 1.2 mm 2 mps 587 mmHg 65%
    16:00 +12°C° 1.2 mm 2 mps 587 mmHg 68%
    17:00 +9°C° 0.8 mm 2 mps 586 mmHg 73%
    18:00 +8°C° 0.8 mm 3 mps 586 mmHg 78%
    19:00 +5°C° 0.8 mm 3 mps 585 mmHg 83%
    20:00 +4°C° 0.2 mm 3 mps 585 mmHg 85%
    21:00 +3°C° 0.2 mm 3 mps 585 mmHg 87%
    22:00 +3°C° 0.2 mm 3 mps 585 mmHg 88%
    23:00 +2°C° 0 mm 3 mps 585 mmHg 89%

    20 August, Sunday

    Time Temperature Precipitation Wind Pressure Humidity
    00:00 +2°C° 0 mm 3 mps 585 mmHg 89%
    01:00 +2°C° 0 mm 2 mps 585 mmHg 89%
    02:00 +2°C° 0 mm 2 mps 585 mmHg 89%
    03:00 +2°C° 0 mm 2 mps 585 mmHg 89%
    04:00 +1°C° 0 mm 2 mps 585 mmHg 89%
    05:00 +2°C° 0 mm 2 mps 585 mmHg 85%
    06:00 +3°C° 0 mm 2 mps 586 mmHg 82%
    07:00 +3°C° 0 mm 2 mps 587 mmHg 79%
    08:00 +5°C° 0 mm 2 mps 588 mmHg 68%
    09:00 +7°C° 0 mm 2 mps 589 mmHg 56%
    10:00 +9°C° 0 mm 2 mps 589 mmHg 45%
    11:00 +10°C° 0 mm 2 mps 590 mmHg 41%
    12:00 +13°C° 0 mm 2 mps 590 mmHg 36%
    13:00 +14°C° 0 mm 2 mps 591 mmHg 32%
    14:00 +14°C° 0 mm 2 mps 591 mmHg 33%
    15:00 +14°C° 0 mm 2 mps 590 mmHg 33%
    16:00 +12°C° 0 mm 3 mps 590 mmHg 34%
    17:00 +10°C° 0 mm 2 mps 589 mmHg 43%
    18:00 +8°C° 0 mm 2 mps 589 mmHg 53%
    19:00 +6°C° 0 mm 2 mps 588 mmHg 63%
    20:00 +5°C° 0 mm 2 mps 587 mmHg 67%
    21:00 +5°C° 0 mm 1 mps 587 mmHg 72%
    22:00 +3°C° 0 mm 1 mps 587 mmHg 77%
    23:00 +3°C° 0 mm 1 mps 586 mmHg 77%

    21 August, Monday

    Time Temperature Precipitation Wind Pressure Humidity
    00:00 +3°C° 0 mm 1 mps 586 mmHg 77%
    01:00 +2°C° 0 mm 1 mps 586 mmHg 77%
    02:00 +2°C° 0 mm 1 mps 586 mmHg 73%
    03:00 +2°C° 0 mm 1 mps 586 mmHg 69%
    04:00 +2°C° 0 mm 1 mps 585 mmHg 65%
    05:00 +3°C° 0 mm 1 mps 586 mmHg 59%
    06:00 +5°C° 0 mm 1 mps 587 mmHg 53%
    07:00 +6°C° 0 mm 1 mps 588 mmHg 46%
    08:00 +9°C° 0 mm 1 mps 589 mmHg 39%
    09:00 +12°C° 0 mm 1 mps 590 mmHg 31%
    10:00 +15°C° 0 mm 1 mps 591 mmHg 23%
    11:00 +16°C° 0 mm 1 mps 591 mmHg 24%
    12:00 +17°C° 0 mm 2 mps 592 mmHg 24%
    13:00 +18°C° 0 mm 2 mps 592 mmHg 25%
    14:00 +18°C° 0 mm 2 mps 591 mmHg 28%
    15:00 +17°C° 0 mm 2 mps 591 mmHg 31%
    16:00 +17°C° 0 mm 2 mps 591 mmHg 34%
    17:00 +15°C° 0 mm 2 mps 590 mmHg 45%
    18:00 +12°C° 0 mm 1 mps 588 mmHg 56%
    19:00 +10°C° 0 mm 1 mps 587 mmHg 66%
    20:00 +8°C° 0 mm 1 mps 587 mmHg 70%
    21:00 +7°C° 0 mm 1 mps 587 mmHg 74%
    22:00 +6°C° 0 mm 1 mps 586 mmHg 78%
    23:00 +6°C° 0 mm 1 mps 586 mmHg 78%
    Show more